Wind_Speed
49 47 46 47 47 46 44 44 45 43 39 37 37 37 36 35 35 35 35 34 33 34 35 33 30 28 27 26 25 24 22 20 18 15 13 14 13 12 12 14 13 12 10 10 11 11 11 11 11 14 15 14 13 13 16 21 24 24 24 22 20 19 17 17 17 16 14 13 13 14 14 16 16 17 17 15 14 14 14 15 16 16 16 16 16 15
49 48 50 50 49 47 46 45 45 44 41 40 40 40 39 38 38 38 38 37 37 38 38 36 33 31 30 29 27 26 24 22 21 17 14 15 14 12 11 13 13 12 12 11 12 13 12 12 12 13 15 14 13 14 17 22 24 24 24 22 21 19 17 18 18 17 15 13 13 14 14 15 15 15 15 13 13 13 14 14 15 15 15 15 14 14
49 51 54 53 50 48 46 46 46 46 44 43 43 43 42 41 41 41 41 41 41 41 41 38 36 36 34 33 30 28 26 24 22 19 16 15 14 13 13 13 11 12 13 13 14 14 14 13 13 14 15 15 14 15 19 22 24 25 24 23 21 20 18 18 18 17 15 14 13 13 14 14 14 14 13 12 12 11 12 13 13 13 13 13 13 13
53 55 56 53 50 48 47 47 47 47 46 45 45 45 44 44 44 43 43 44 44 43 43 41 40 40 38 35 33 31 28 25 23 22 19 16 15 14 13 11 10 13 15 15 15 16 16 15 14 15 16 16 16 17 20 23 24 24 24 23 22 20 19 18 18 17 16 15 14 14 14 13 13 13 12 11 10 11 11 11 11 12 12 12 11 11
56 58 56 53 50 48 48 48 48 48 47 47 47 47 47 47 45 45 45 46 46 45 45 42 41 42 41 38 36 34 30 26 24 23 21 18 16 16 14 11 11 14 16 17 17 16 17 16 16 16 17 17 16 17 21 23 23 24 24 23 22 21 18 17 18 18 17 16 15 14 13 12 12 11 11 10 10 10 11 10 10 10 11 11 10 10
59 59 56 54 52 50 50 50 49 50 49 49 48 49 50 48 47 47 46 47 48 46 45 43 42 44 43 41 39 37 33 29 27 24 22 20 18 17 16 13 13 13 15 18 18 17 18 18 18 17 18 18 17 18 22 24 24 25 24 23 23 21 19 18 18 18 17 16 15 15 14 13 12 11 10 10 10 10 10 10 10 10 10 10 9 9
60 59 57 55 54 53 52 51 51 51 51 50 50 52 52 49 49 48 47 48 48 47 47 44 43 45 45 43 42 39 36 35 31 26 23 23 20 19 18 16 15 14 15 17 18 18 18 18 18 18 18 20 18 19 23 24 26 27 26 25 24 22 21 20 19 18 18 17 16 15 14 13 12 11 11 10 10 10 10 10 10 10 10 9 9 9
61 61 59 58 56 55 53 53 54 54 52 52 53 54 53 51 50 49 48 49 48 49 49 45 44 46 44 44 44 41 39 38 33 28 26 25 23 21 19 18 16 15 15 16 18 19 18 18 18 18 19 21 21 21 24 26 27 28 27 26 25 23 22 20 20 19 18 17 16 15 14 14 13 12 12 11 11 10 10 10 10 10 9 9 10 9
65 65 62 60 59 56 55 55 56 55 54 54 55 55 53 51 50 49 49 49 49 50 49 46 46 46 44 45 45 42 41 38 35 32 30 27 25 22 20 19 18 17 16 16 17 19 19 19 19 18 19 22 23 23 26 28 28 28 28 27 26 24 23 22 21 20 19 18 17 16 15 14 14 13 12 12 11 11 11 10 10 10 9 9 9 8
68 66 63 62 59 56 56 56 56 54 54 55 55 53 52 51 50 50 50 50 50 49 47 48 48 45 45 48 47 44 42 40 38 36 32 30 27 23 21 21 20 19 18 17 16 17 19 19 19 19 19 21 24 25 26 28 30 30 30 29 27 26 24 23 22 21 20 19 18 17 16 15 14 13 13 12 12 11 10 10 9 9 9 8 8 7
67 66 64 60 57 56 56 56 54 53 55 55 52 52 51 50 50 50 50 51 49 47 46 48 49 47 47 50 48 45 44 43 41 38 34 31 28 25 23 22 21 20 18 17 15 15 18 20 21 21 20 20 24 27 28 30 32 33 32 31 29 27 26 24 23 22 21 20 18 17 16 15 14 13 12 12 12 11 10 10 9 8 8 8 7 6
67 64 61 58 56 56 55 54 53 53 55 53 51 52 52 51 51 50 50 50 46 44 46 49 52 51 49 51 51 48 46 45 44 40 36 33 31 28 26 24 23 22 19 19 17 15 18 20 22 23 21 20 24 29 30 32 33 35 34 32 31 29 28 26 24 24 22 21 19 18 17 15 14 13 13 12 12 11 10 10 9 8 8 7 7 6
65 62 60 59 58 58 56 53 53 54 54 53 52 53 52 50 51 50 49 48 45 47 50 54 57 53 50 53 53 51 49 48 46 42 38 36 34 31 29 27 25 22 22 22 19 16 18 21 23 23 21 21 24 29 32 33 34 35 35 34 32 30 29 27 25 24 23 21 20 18 17 15 14 14 13 12 11 11 10 10 9 9 8 7 6 5
68 66 64 61 59 59 56 53 54 55 54 53 52 52 52 51 51 49 49 48 49 51 54 57 56 50 48 52 51 51 52 51 49 44 40 39 36 33 32 30 27 24 24 24 20 18 18 20 23 24 22 23 25 29 34 35 34 35 35 34 33 31 29 27 25 24 22 21 19 18 17 16 15 14 13 12 11 10 9 9 9 8 7 6 5 5
71 69 64 60 59 58 55 53 55 57 55 54 54 54 53 52 50 50 50 50 51 53 55 55 51 46 46 48 49 48 50 51 49 46 44 41 37 35 34 33 30 26 25 25 22 20 19 20 23 24 24 25 27 30 35 36 36 36 36 35 33 31 29 27 25 23 22 21 20 18 17 16 15 14 13 12 11 10 10 10 8 7 7 6 6 6
72 68 64 63 63 61 58 57 58 58 56 56 57 54 52 51 51 50 50 51 52 53 53 50 45 44 45 46 46 44 45 48 48 46 45 41 38 37 36 35 33 29 26 26 24 22 22 22 23 24 24 26 28 30 35 38 37 38 38 37 35 33 30 28 26 24 23 22 20 19 19 18 17 16 15 14 13 12 11 10 9 8 8 8 8 8
73 69 68 68 66 63 61 60 60 58 57 59 56 52 52 54 52 49 49 51 51 49 48 45 43 44 44 43 44 42 42 44 45 46 45 41 40 38 37 37 36 32 29 28 27 24 23 23 24 25 26 27 29 30 34 38 39 39 39 38 36 35 33 31 29 27 26 24 23 22 21 20 19 18 17 16 15 15 14 12 11 10 10 10 11 11
74 72 72 70 66 64 63 63 62 60 59 59 55 53 57 56 49 48 49 48 47 45 46 45 44 45 44 43 44 44 43 42 42 44 43 41 41 40 38 39 38 36 32 30 30 26 24 24 25 26 29 31 32 31 32 36 39 40 41 40 39 37 36 34 32 30 29 27 25 23 23 22 21 20 19 18 18 17 15 14 13 14 14 13 13 13
76 75 75 72 69 67 67 67 64 59 58 57 55 57 57 51 46 47 48 45 44 44 44 44 44 43 41 41 44 45 44 43 43 43 42 42 43 42 41 40 41 38 34 33 32 28 26 26 26 28 30 32 33 32 31 35 40 42 42 42 41 40 38 36 35 33 31 29 26 25 25 24 22 21 20 20 19 18 17 17 17 17 16 16 15 14
78 78 76 73 71 70 70 67 61 57 57 56 56 57 53 47 46 47 47 46 45 45 44 45 44 42 39 40 42 41 41 43 45 44 43 45 45 45 44 43 43 40 36 35 33 30 28 27 27 27 28 29 32 34 33 35 41 44 44 45 44 42 40 39 38 36 34 31 29 28 27 25 24 22 21 21 21 20 20 20 19 18 18 17 17 16
79 78 75 73 73 72 67 62 57 56 57 56 56 55 51 47 46 46 46 46 45 45 45 44 43 41 39 38 37 36 37 41 43 43 45 47 48 49 47 46 45 42 39 37 35 32 30 27 25 25 25 25 28 33 34 35 42 46 46 46 46 44 42 40 39 38 36 34 33 31 29 27 25 24 24 24 23 22 21 21 21 20 21 20 19 18
79 75 75 76 75 68 62 60 59 59 59 58 58 57 53 50 48 46 45 45 44 44 44 43 42 41 37 34 34 35 37 40 40 40 44 48 50 51 50 48 47 44 41 39 37 35 31 28 26 25 26 27 27 31 35 36 42 48 48 47 47 44 42 40 39 39 38 38 35 33 30 28 27 27 27 26 24 22 22 22 22 23 23 22 21 20
80 77 78 79 74 66 63 64 64 63 62 62 61 59 55 53 51 47 47 47 46 46 46 44 44 41 36 35 35 33 34 37 38 40 43 47 50 51 50 50 48 45 43 41 38 36 33 30 28 27 28 29 27 29 33 36 42 48 48 47 46 45 43 41 40 40 39 38 36 33 31 30 29 29 28 26 24 22 22 23 24 25 25 24 23 22
88 85 82 80 74 69 67 68 68 66 65 63 61 59 55 54 52 51 51 51 49 49 49 47 47 43 37 35 33 31 32 36 37 39 41 45 49 50 51 51 49 47 46 43 38 37 35 32 30 29 29 30 29 29 32 36 41 46 47 46 46 45 43 42 41 40 39 38 35 33 32 31 30 29 29 27 25 23 23 24 26 26 26 26 25 25
91 87 82 79 78 74 70 69 68 65 62 60 60 59 55 55 55 54 54 53 52 52 50 50 50 45 39 36 31 28 32 36 37 38 39 43 48 50 50 51 50 49 48 45 41 40 38 35 33 31 29 30 30 30 33 37 41 45 47 47 46 45 43 42 41 40 39 38 36 34 33 31 31 31 31 30 28 26 26 27 28 28 28 28 28 27
90 85 81 81 81 77 70 68 67 64 61 60 61 60 58 58 57 56 55 54 53 53 51 52 51 43 40 40 32 27 30 34 36 38 38 41 45 46 47 49 51 50 49 47 45 44 42 40 37 32 29 31 32 33 36 40 43 46 46 47 46 45 44 43 41 40 39 38 37 35 34 34 33 33 33 32 31 30 30 30 30 30 30 30 30 29
89 84 82 82 82 79 74 72 72 69 66 64 64 63 61 60 59 58 57 55 54 54 54 55 52 43 42 42 34 31 33 35 36 37 37 38 41 42 46 50 53 52 52 51 49 47 46 44 39 35 32 33 35 37 39 42 45 46 46 46 46 46 45 43 42 40 39 38 38 37 37 36 36 35 34 34 33 33 33 33 32 31 31 31 32 32
89 86 84 83 82 82 78 76 75 73 68 66 66 65 64 63 62 60 57 56 57 57 57 58 53 45 44 42 36 36 38 38 38 37 36 37 39 41 46 51 54 54 53 52 49 48 48 45 41 38 35 33 35 37 40 43 45 46 46 46 47 47 46 45 43 42 41 40 39 40 39 39 38 37 36 36 35 35 35 34 33 33 33 33 33 33
90 87 85 84 85 84 81 78 77 74 70 67 67 67 67 66 65 63 61 60 60 59 60 60 55 49 46 44 42 43 42 40 39 38 36 37 38 41 45 50 52 53 53 52 50 49 49 45 42 41 38 35 35 37 40 43 45 46 47 46 47 48 47 46 45 44 43 42 42 41 41 40 39 38 37 37 36 35 35 34 34 34 34 34 34 34
88 85 85 87 89 88 84 80 77 75 73 71 69 70 69 68 66 66 65 64 63 62 62 61 58 53 51 51 49 47 44 42 40 38 37 38 39 41 44 48 52 53 54 52 51 51 49 47 45 43 39 36 36 37 40 43 45 47 47 47 47 47 47 46 46 45 45 44 43 42 41 41 40 39 38 36 35 35 35 35 35 35 35 36 36 36
85 85 87 90 90 88 85 81 79 77 76 74 70 69 69 68 68 69 69 67 66 65 64 63 61 58 55 55 51 46 43 42 39 38 40 41 41 42 44 47 51 52 52 52 52 53 51 48 48 46 41 37 36 38 40 43 45 46 47 47 47 46 46 46 46 45 45 45 44 43 42 42 41 40 38 37 37 37 37 37 37 37 37 38 37 37
85 88 91 92 90 87 85 82 81 79 77 74 72 70 70 70 70 71 70 69 69 68 67 66 63 60 59 57 52 46 44 42 41 42 44 44 43 43 43 44 47 49 52 54 55 55 55 53 53 51 45 40 39 40 41 43 45 46 47 47 47 47 47 47 46 46 45 45 44 43 43 42 42 41 39 39 39 39 38 38 39 39 39 38 38 37
88 91 92 92 90 87 85 83 82 81 79 77 74 72 71 71 73 74 73 72 71 70 68 66 64 64 63 57 51 47 45 46 47 47 45 43 41 40 41 42 44 48 52 55 57 58 59 57 55 54 50 47 45 44 43 43 44 45 46 47 47 48 48 47 47 46 45 45 45 44 43 43 43 42 41 40 40 39 40 40 39 39 39 39 38 39
90 90 91 91 90 88 87 87 87 85 83 81 78 75 75 76 77 78 76 74 73 72 71 69 68 68 63 56 52 52 51 51 50 47 44 42 40 40 41 42 43 45 50 55 58 59 59 57 56 56 55 52 50 48 46 45 45 45 46 47 48 49 48 48 47 47 46 46 45 45 44 44 43 43 42 41 41 41 41 41 40 39 40 40 41 41
91 90 90 90 90 91 91 92 91 86 82 81 79 79 78 77 76 79 79 78 79 79 78 74 71 69 64 58 57 58 56 53 49 45 43 43 42 42 42 42 42 44 48 53 56 57 57 58 57 58 57 55 53 51 49 48 47 46 46 47 48 49 49 48 48 47 47 46 46 46 45 45 44 43 43 43 42 42 43 43 42 42 42 43 43 44
91 91 91 90 91 93 94 95 91 85 83 83 81 80 80 79 79 83 84 83 82 81 77 73 69 66 61 58 60 62 59 54 49 46 45 46 46 45 43 42 42 42 44 47 51 55 58 59 58 56 55 55 55 54 52 50 49 48 48 47 47 48 48 48 47 47 47 46 47 47 46 45 44 44 44 44 44 44 44 44 44 44 43 44 44 45
93 93 92 92 93 94 96 95 89 86 87 86 82 83 84 83 84 86 85 84 83 79 75 71 69 67 64 65 68 66 61 56 51 50 51 50 48 44 41 38 38 37 38 42 48 54 58 59 60 59 57 55 54 54 55 53 51 50 49 48 48 48 47 47 48 48 47 47 47 46 45 45 44 44 44 45 45 45 44 44 44 44 44 44 45 46
93 94 94 95 96 97 97 95 92 91 90 85 83 86 88 86 86 86 84 84 84 80 76 75 75 73 71 71 69 63 57 54 53 55 55 51 45 42 39 38 38 37 38 42 46 50 53 57 60 60 60 58 55 54 54 54 53 52 51 51 50 49 49 48 49 49 48 48 47 46 46 45 45 45 45 45 46 45 45 45 45 45 45 46 46 47
94 95 95 95 96 97 96 96 95 93 90 87 88 92 91 87 87 85 83 86 87 83 81 81 79 76 72 69 64 58 55 57 60 61 56 49 44 42 41 41 39 39 40 42 43 44 48 53 56 58 60 61 59 57 56 54 54 53 53 53 52 51 51 50 50 49 49 49 48 47 47 47 47 47 47 47 47 47 47 47 47 47 48 48 49 50
96 97 96 95 96 96 96 97 97 95 94 93 94 95 93 89 89 88 87 89 88 83 82 81 77 74 71 67 64 61 61 63 66 62 52 46 44 44 44 43 41 40 42 42 41 42 44 46 50 54 57 59 60 60 58 57 56 55 55 54 54 53 53 52 51 50 50 50 50 49 49 49 48 48 48 48 48 48 48 49 49 49 49 49 49 50
98 97 96 96 97 98 97 98 100 99 98 98 98 98 95 92 92 93 91 90 87 83 82 81 77 73 70 66 65 66 66 67 66 59 51 48 48 48 49 47 44 43 44 42 42 43 42 41 44 48 51 54 57 57 57 57 57 57 56 56 55 55 54 53 52 52 51 51 51 51 50 50 49 49 49 49 48 48 48 49 48 48 47 47 46 45
99 98 97 97 98 99 98 100 102 101 100 100 100 98 94 92 93 93 90 87 85 83 82 82 78 74 71 69 70 69 67 67 66 61 57 55 52 51 52 50 46 45 45 44 43 43 41 41 42 43 45 48 50 51 53 54 55 55 55 55 55 55 54 53 53 53 52 52 52 52 51 50 49 48 46 46 45 45 45 44 44 43 42 41 40 39
100 99 98 98 99 100 100 101 103 102 101 100 100 97 95 93 93 92 89 86 84 82 81 82 79 74 72 72 71 70 68 67 67 64 61 58 55 53 52 50 48 46 46 45 44 44 43 42 41 41 41 43 44 45 47 49 50 51 51 51 51 51 51 51 51 50 50 49 48 47 46 45 44 43 41 41 40 40 40 39 39 38 38 37 36 36
102 101 99 99 100 102 102 103 103 102 100 99 99 97 95 94 93 93 91 88 86 83 82 82 79 76 74 73 72 70 69 67 66 66 65 62 58 55 53 51 50 49 47 46 46 45 45 43 41 41 41 41 42 43 43 44 45 45 45 45 46 46 45 45 44 43 41 40 39 38 38 37 37 37 37 37 37 36 36 36 36 36 36 36 36 35
104 103 102 101 102 103 104 104 103 101 100 99 97 94 93 93 93 92 91 89 85 83 83 82 80 78 77 75 73 72 71 68 68 68 67 65 62 59 56 54 52 51 49 48 47 46 46 44 43 44 43 43 43 43 42 42 42 41 42 42 42 41 40 39 37 37 36 36 35 36 35 35 36 36 36 35 35 35 35 35 35 35 36 36 36 36
106 105 104 104 103 102 103 103 102 101 101 98 94 92 92 92 92 92 91 89 86 84 83 83 82 80 78 76 75 74 72 70 69 69 68 67 65 62 60 57 55 53 52 51 50 49 48 46 46 46 45 45 44 43 43 43 42 41 41 41 40 38 37 36 37 37 37 37 37 37 37 37 37 37 36 36 36 37 37 37 37 37 37 38 38 38
108 105 104 104 103 102 103 103 102 101 101 98 93 92 93 92 91 91 91 90 89 86 84 84 83 82 79 77 76 75 73 72 71 70 69 68 67 66 64 61 58 56 55 54 54 54 51 48 48 48 47 47 46 45 45 44 43 43 42 41 40 39 38 38 39 39 39 40 39 39 39 39 39 39 39 38 39 39 40 40 40 40 40 41 41 41
109 106 104 102 101 101 102 102 101 100 100 97 93 91 91 90 89 89 90 91 91 88 85 84 84 83 81 79 78 77 75 74 73 72 70 69 69 68 67 65 61 59 57 56 57 57 55 52 51 51 50 49 49 48 47 46 45 44 43 43 42 41 41 41 41 42 42 42 41 41 41 41 41 41 41 42 42 42 42 43 43 43 43 44 44 44
110 108 105 103 101 99 99 100 99 98 97 95 91 91 91 89 87 86 89 91 92 89 87 86 85 84 83 81 80 78 77 75 74 73 72 71 70 70 70 68 65 62 60 58 59 60 59 57 55 54 54 53 51 50 50 49 49 47 46 45 45 45 44 44 44 44 44 44 43 43 43 44 44 44 44 45 45 45 45 46 46 46 46 46 46 47
111 110 107 104 102 100 98 98 98 97 96 94 92 92 91 89 86 87 89 91 92 90 88 88 87 86 85 84 82 80 78 77 75 74 73 72 72 72 72 71 69 66 64 62 61 62 62 61 59 58 57 56 54 52 52 52 52 51 50 49 49 49 48 48 47 47 46 46 46 46 47 47 46 47 48 48 48 48 49 49 49 49 49 49 49 50
110 110 108 105 102 100 98 97 96 95 93 91 90 89 88 87 87 88 88 89 90 90 89 88 88 87 86 85 83 81 79 78 76 75 74 74 73 73 73 73 72 70 68 66 65 64 64 63 62 61 60 59 57 56 55 55 54 54 54 53 53 52 51 51 51 50 50 50 50 50 51 51 50 50 52 51 51 52 52 52 53 52 52 52 53 54
Wind_Direction
244 244 245 245 244 244 245 246 248 250 251 251 251 251 250 247 245 245 247 247 248 252 253 252 251 251 253 256 257 261 263 259 257 259 263 266 268 268 275 278 272 261 246 232 230 229 226 221 214 212 210 205 199 193 181 178 181 184 187 183 177 176 176 171 168 169 170 167 163 157 155 155 156 155 153 148 145 140 136 135 134 130 126 122 119 114
244 246 245 244 244 245 246 247 249 250 249 249 249 248 248 246 244 243 245 246 246 249 251 251 252 251 251 252 254 256 258 257 257 256 257 267 270 266 270 271 261 250 239 227 225 227 228 223 213 212 214 209 199 191 181 178 183 186 188 185 179 178 179 175 172 173 174 171 167 163 160 160 159 159 158 152 146 140 136 133 131 130 127 124 120 114
244 245 244 244 244 245 246 247 247 248 247 247 247 247 247 246 244 243 244 245 244 247 249 250 251 250 249 249 249 251 253 256 259 258 257 262 265 262 265 269 256 241 235 226 221 225 229 222 210 211 215 210 199 189 179 179 184 186 188 187 181 180 183 180 176 175 176 175 172 169 166 166 165 165 165 160 155 149 142 136 133 131 129 125 120 115
242 243 244 244 245 246 246 246 246 247 247 246 246 246 246 245 245 245 244 245 245 245 248 249 250 251 250 249 249 249 250 252 256 258 256 256 259 259 261 267 257 242 235 229 224 226 229 223 211 209 213 210 202 190 179 179 185 187 189 190 184 183 184 183 179 177 179 179 178 176 174 173 171 169 168 166 165 160 153 146 139 135 133 128 120 115
242 243 245 245 245 245 245 245 245 246 245 244 244 245 245 245 245 245 244 246 247 246 248 249 251 253 253 251 250 249 248 247 249 252 254 253 255 258 258 259 255 246 236 232 232 230 228 224 213 210 213 212 205 192 179 178 184 188 191 192 188 186 186 184 182 181 182 182 182 181 179 177 174 170 167 165 165 164 160 155 149 143 138 130 121 116
243 244 244 245 244 244 244 244 244 244 244 244 244 244 244 245 245 245 245 246 247 248 250 250 252 254 254 253 252 250 247 244 242 244 250 251 250 253 255 252 251 246 236 235 236 234 231 226 216 212 215 216 208 194 180 176 181 188 192 195 192 187 186 188 185 183 184 183 183 183 181 180 178 174 169 165 162 161 161 157 153 147 141 132 124 120
244 245 244 244 244 243 243 244 244 244 244 245 245 244 245 246 246 246 246 247 248 249 250 249 251 254 255 255 255 252 248 244 242 240 244 247 246 247 251 249 249 247 240 237 237 237 236 230 221 215 217 220 213 195 182 176 180 188 191 196 196 190 188 189 187 185 185 184 184 184 183 182 180 177 173 169 164 162 162 159 155 150 144 136 130 127
245 244 243 243 243 243 242 243 243 243 243 244 244 245 246 247 247 247 247 248 248 249 249 249 249 252 254 255 255 253 250 247 243 238 237 241 241 240 245 246 248 250 247 240 235 235 233 230 225 217 216 222 217 199 185 179 182 187 191 197 197 193 191 190 187 186 185 184 184 183 183 182 181 180 177 173 169 166 166 165 162 157 149 142 137 134
242 242 241 241 241 241 241 241 242 243 243 243 244 246 247 248 248 248 247 248 248 249 250 248 247 249 251 252 252 250 248 246 241 235 232 235 236 236 241 242 242 246 249 245 236 232 231 229 225 218 216 222 222 208 190 182 183 187 191 197 197 195 193 191 188 187 185 184 183 182 182 182 181 181 177 175 173 171 170 168 165 160 154 149 145 144
242 242 242 241 242 241 240 241 242 243 243 243 245 247 248 248 248 247 247 247 247 248 249 248 246 245 245 247 248 246 245 243 239 234 229 230 232 232 237 240 238 237 243 246 236 230 232 230 223 220 220 223 225 217 197 184 183 187 192 196 197 196 194 193 190 187 186 185 183 181 180 180 180 180 178 177 175 174 173 171 168 163 159 156 153 153
243 242 242 242 242 242 241 241 242 243 243 244 245 246 246 246 245 246 246 246 246 247 248 247 244 241 239 242 242 241 241 240 237 233 228 227 228 227 229 235 237 236 242 248 238 226 229 231 228 224 221 222 227 221 204 189 185 188 192 196 196 196 195 195 192 189 187 186 183 182 181 180 180 179 179 178 176 175 173 172 170 167 166 164 163 163
244 244 244 243 241 241 240 240 241 241 242 243 243 243 243 243 243 244 244 245 246 245 244 242 241 237 235 236 237 236 237 237 236 233 228 225 225 224 223 227 233 237 240 246 244 232 227 232 233 227 218 218 226 225 211 196 190 189 192 195 196 196 197 197 194 191 189 186 185 184 183 182 180 180 180 180 178 176 174 174 172 171 172 172 172 172
243 243 242 240 239 239 238 237 238 239 240 241 240 241 242 241 242 242 243 245 243 241 240 240 241 239 234 235 237 236 236 236 235 232 227 224 223 222 221 222 229 234 236 241 246 241 230 229 234 230 221 219 225 227 217 202 194 193 192 194 195 197 198 198 197 195 191 189 188 186 184 183 183 183 185 184 183 182 182 181 180 179 180 183 186 189
237 237 236 236 236 237 237 235 237 238 238 239 239 240 240 240 240 241 242 242 241 241 242 244 247 246 241 242 244 240 238 237 235 231 226 224 222 221 222 223 225 229 235 238 241 243 234 225 227 229 228 226 226 226 220 207 198 195 194 195 196 198 200 200 200 198 194 193 192 189 188 187 188 190 191 192 193 194 196 197 197 197 196 200 208 216
237 237 237 236 235 236 235 234 235 237 237 237 238 238 238 239 239 240 240 241 242 242 244 247 250 249 244 245 246 243 240 240 238 233 228 224 222 221 223 224 224 226 234 239 239 242 238 226 223 228 231 229 225 224 222 211 201 196 194 195 197 199 202 203 203 200 198 198 196 195 194 194 195 197 197 199 200 203 208 211 214 216 218 220 228 236
239 239 238 235 234 233 231 231 232 234 236 237 237 237 239 240 239 239 240 241 242 244 246 249 249 245 242 242 242 241 240 240 239 235 230 226 221 220 222 225 224 224 230 238 240 240 240 232 223 224 230 231 225 223 222 215 205 198 195 195 196 199 202 204 204 203 202 202 201 200 201 200 202 204 203 205 207 210 216 220 224 230 235 238 242 246
238 237 236 235 234 233 232 231 231 231 233 235 236 236 238 238 237 238 240 241 243 245 246 245 241 239 238 237 237 235 233 234 236 234 230 226 221 219 221 224 225 224 226 233 236 237 240 239 229 224 228 230 225 223 224 219 210 201 196 195 196 198 201 203 205 204 205 205 205 205 207 207 209 211 212 213 216 219 221 225 230 236 240 244 247 250
234 234 234 234 233 233 232 232 231 230 231 234 235 234 236 237 237 238 240 242 244 244 242 239 238 238 237 235 234 231 226 225 228 230 229 224 221 219 220 223 225 224 223 227 231 232 236 238 233 225 224 226 224 222 225 222 214 205 199 196 196 199 201 204 205 205 207 208 208 210 213 215 217 219 220 222 225 227 228 230 233 236 239 242 248 250
231 231 231 231 230 230 230 231 230 230 233 235 235 235 237 239 239 239 240 240 239 238 237 236 237 237 236 233 232 230 226 221 220 223 223 221 220 219 219 222 224 223 223 226 227 228 231 231 229 224 221 224 225 222 224 224 217 208 202 198 197 199 202 204 206 207 208 210 211 214 217 219 222 224 227 230 233 235 235 236 236 238 241 245 249 251
230 231 231 230 229 229 229 230 230 231 233 235 236 237 239 239 238 238 238 237 235 235 235 235 235 234 232 230 231 230 227 223 220 219 217 217 217 217 217 219 222 221 221 224 226 227 229 229 230 227 220 220 225 222 221 224 220 212 206 202 200 201 202 204 206 208 209 211 213 216 218 220 222 225 229 231 233 235 236 237 239 242 244 246 247 247
229 230 231 231 230 230 230 231 230 231 232 233 234 236 237 236 236 236 236 236 235 235 235 236 235 233 231 230 231 228 224 224 223 221 218 216 215 215 215 217 219 219 219 222 225 226 227 231 235 234 223 217 222 222 218 221 223 216 209 205 203 203 204 206 208 209 209 212 214 216 217 217 218 221 225 228 230 232 234 237 239 240 242 243 243 244
232 231 232 232 231 230 230 230 228 226 228 228 229 231 231 230 229 230 231 232 231 232 233 233 233 231 229 228 226 222 220 221 222 221 219 218 217 215 215 216 217 218 218 220 223 224 227 231 232 231 225 216 217 221 217 217 221 217 212 209 206 205 206 208 209 210 211 213 215 215 214 215 217 220 225 229 231 233 235 237 238 239 241 242 242 243
230 229 230 232 231 228 226 226 225 223 223 224 224 226 225 225 224 223 224 225 225 226 228 228 229 227 224 224 222 218 217 219 220 220 218 219 218 216 215 216 215 216 218 218 220 224 227 229 228 228 225 217 214 219 217 215 218 217 214 211 209 207 208 209 211 212 213 215 216 216 216 219 223 227 230 233 235 239 241 242 243 243 243 244 243 244
226 225 225 229 230 227 224 224 224 222 222 222 223 225 224 224 223 220 220 222 222 224 225 226 228 225 222 224 222 217 218 219 219 220 219 218 219 216 215 216 214 214 217 216 215 220 224 226 228 229 226 218 214 215 213 212 215 215 214 214 211 209 210 211 213 213 215 217 217 219 222 226 231 233 235 237 240 245 248 249 249 248 246 245 245 247
228 226 224 226 228 226 223 224 225 224 223 222 223 224 224 224 223 220 220 222 223 225 226 227 229 225 221 224 220 216 222 222 221 222 219 219 220 218 215 216 215 214 216 214 212 217 221 223 226 227 224 220 215 211 208 208 211 213 214 214 212 211 211 213 214 214 215 217 219 222 226 231 235 237 238 240 243 248 251 253 253 252 249 248 248 251
230 229 226 226 228 227 223 223 226 225 223 222 223 223 223 223 223 220 219 221 224 228 228 230 231 225 224 226 220 217 224 224 223 224 220 219 221 220 218 217 217 216 215 214 213 215 218 219 219 220 219 218 216 211 207 206 208 211 213 214 213 212 213 215 216 216 216 218 221 226 230 234 238 240 241 243 246 249 251 252 253 253 252 251 252 255
228 228 227 226 228 228 223 220 222 222 220 218 220 221 221 222 222 220 219 219 223 227 229 232 232 226 226 228 221 220 229 229 228 226 221 220 221 220 218 218 218 216 215 214 213 214 218 217 215 216 216 215 215 212 208 205 206 209 212 214 214 214 215 217 217 218 219 221 225 229 233 236 240 242 244 246 248 250 251 252 253 253 252 252 254 257
226 225 224 225 227 228 225 221 220 221 220 217 218 219 220 221 221 220 219 218 221 225 228 232 231 226 228 229 223 225 232 233 233 229 224 222 220 218 218 218 218 217 216 216 214 215 219 218 216 218 218 217 218 216 211 207 206 208 211 213 215 216 218 219 220 221 222 224 228 232 235 238 241 243 245 247 249 251 251 252 253 254 254 254 256 260
223 222 222 221 223 225 225 222 221 221 220 218 217 218 219 220 219 218 218 217 219 223 227 230 230 227 228 229 225 226 229 231 232 230 226 223 221 220 219 219 218 218 218 217 216 217 220 220 220 222 223 222 222 221 217 211 208 209 211 213 216 218 219 221 222 224 225 227 230 233 236 238 240 243 245 247 249 250 251 252 254 256 257 257 259 261
221 221 221 221 221 222 222 221 221 221 221 219 217 217 218 220 220 218 217 217 217 221 225 229 230 228 227 228 226 225 228 230 231 230 228 226 223 222 221 219 218 218 217 216 216 219 221 221 222 225 227 226 224 223 221 217 213 212 212 214 216 219 221 222 224 226 228 229 230 233 236 238 240 242 244 247 248 249 250 250 252 255 257 258 259 260
220 219 220 222 222 222 221 220 219 220 221 220 218 217 217 219 220 219 218 217 217 219 223 227 229 228 228 229 227 225 229 232 231 230 231 228 225 223 221 219 218 217 216 215 216 218 220 221 223 225 226 224 222 223 222 220 218 217 216 216 218 219 221 223 225 226 228 229 230 232 235 239 241 243 245 246 247 247 248 249 251 253 255 257 258 261
218 218 219 220 221 221 221 220 219 219 219 220 218 217 217 218 220 221 219 218 219 220 222 226 228 228 229 229 227 225 228 230 228 227 228 229 227 226 224 223 221 218 217 215 215 216 218 219 221 223 225 225 223 223 223 221 220 219 219 219 219 221 222 224 225 227 229 231 232 233 236 239 243 244 245 246 247 248 249 250 251 253 255 258 260 262
217 218 219 219 219 219 220 220 220 218 218 218 218 217 216 215 217 220 219 218 219 220 221 224 226 228 228 228 226 225 226 227 225 224 226 229 229 229 228 226 222 220 218 217 215 216 217 218 219 222 226 227 226 224 223 223 222 221 221 221 222 223 224 226 227 229 230 232 235 236 238 240 243 245 246 247 248 250 251 251 253 255 257 260 262 264
216 217 219 219 219 218 218 219 219 217 216 217 216 216 216 214 214 217 219 218 218 220 221 221 223 227 228 227 227 227 225 226 226 225 226 229 229 229 228 227 224 221 220 219 217 217 218 219 221 223 225 226 226 225 225 224 224 223 223 223 223 224 225 227 228 230 231 233 236 238 240 241 243 245 247 248 250 251 253 254 255 257 259 261 263 265
213 215 217 218 218 218 218 218 219 217 217 217 216 215 216 215 214 216 218 218 217 218 220 220 222 226 227 226 227 228 226 225 227 226 225 227 228 228 227 226 224 222 221 221 220 219 218 220 222 223 224 225 227 227 227 226 226 226 225 226 226 227 228 229 230 232 234 235 237 239 241 242 244 246 248 250 251 253 254 256 257 258 260 262 265 267
212 213 215 217 218 218 218 219 219 217 216 216 216 216 217 215 214 215 217 218 219 219 220 221 222 225 227 227 228 229 227 224 223 224 224 224 225 226 227 227 226 224 224 224 223 222 221 221 222 224 224 225 226 227 227 228 228 228 229 229 230 230 231 232 233 234 236 237 239 241 243 244 246 248 250 252 253 254 255 257 259 260 262 264 267 269
212 212 213 214 216 218 219 220 220 217 216 215 214 216 218 216 216 216 216 218 220 220 220 221 222 222 222 224 226 227 226 223 220 220 222 222 223 226 228 230 229 227 226 226 225 224 223 223 224 224 225 226 226 226 227 227 228 230 231 231 232 232 232 233 234 235 237 239 240 242 244 246 248 249 251 253 254 256 258 259 262 263 265 267 269 271
212 212 212 212 214 216 217 219 219 217 217 215 214 216 218 217 218 218 217 218 220 219 218 218 219 220 220 223 226 228 229 228 225 224 222 221 222 224 226 227 227 225 225 226 226 225 225 225 226 226 226 226 227 227 227 227 228 230 231 233 234 235 235 236 237 238 239 241 242 244 245 247 249 250 252 254 256 258 260 262 264 266 267 269 271 273
213 213 212 212 213 215 215 217 218 217 216 215 214 216 217 217 218 219 218 219 219 218 217 218 218 219 221 223 226 229 229 231 231 229 225 221 220 222 223 224 225 224 225 227 228 227 227 227 227 228 228 228 228 229 229 229 230 231 232 234 235 236 238 239 240 241 243 244 246 247 248 249 251 252 254 256 258 260 262 264 266 268 269 271 272 274
213 213 212 211 213 214 214 216 217 217 216 215 214 215 215 215 217 218 218 219 219 217 218 221 220 220 220 221 223 224 225 228 231 229 224 221 220 220 222 223 223 224 226 227 229 230 230 230 230 230 230 230 231 231 231 232 233 234 234 235 237 238 239 241 243 245 246 247 248 249 251 252 253 255 257 259 261 263 265 266 267 268 270 271 271 272
212 213 212 212 212 213 213 214 216 216 215 215 215 215 214 214 216 218 217 218 218 216 217 221 221 220 220 220 221 223 225 228 231 229 224 222 220 219 220 221 221 223 225 226 227 229 230 231 232 232 233 233 233 233 234 234 235 236 237 238 239 240 241 243 244 246 247 249 250 251 253 254 256 258 260 261 262 263 264 265 266 266 267 267 268 269
210 212 212 211 212 213 213 214 215 215 215 215 216 216 215 214 216 218 218 218 218 217 217 219 220 220 219 219 221 222 224 228 231 230 226 224 221 220 220 220 220 223 224 224 226 228 228 230 232 233 234 235 236 235 236 236 235 236 238 239 241 242 244 245 246 248 249 251 253 254 255 256 256 257 258 258 259 260 261 262 262 263 264 264 265 267
210 211 211 211 212 213 214 214 215 215 215 215 216 215 215 214 216 218 219 218 218 217 217 219 220 220 220 220 221 222 224 227 230 231 230 228 225 223 223 222 222 224 224 222 223 225 226 228 230 231 233 235 236 236 236 237 237 237 237 239 240 242 244 246 247 248 250 251 252 253 253 253 253 252 252 253 254 255 258 259 261 262 264 265 267 268
210 210 211 211 212 213 214 215 215 215 215 215 215 215 214 213 214 217 218 218 217 217 217 218 219 219 220 221 221 223 224 227 229 230 231 231 228 226 224 223 223 223 224 221 220 222 224 226 228 229 230 231 233 233 234 234 235 235 235 235 236 237 238 240 241 242 243 244 245 246 247 247 248 248 249 251 253 255 257 259 261 263 265 267 269 271
210 210 210 211 212 213 213 214 215 215 215 215 214 214 214 214 214 216 218 218 217 217 217 218 218 219 219 220 221 222 223 225 227 229 230 231 231 228 226 224 222 222 223 223 221 221 222 223 225 227 227 228 230 230 230 230 230 230 230 230 229 229 230 231 234 235 235 237 239 241 242 244 247 248 250 252 254 256 258 259 261 263 265 268 270 272
211 210 210 210 211 212 214 215 215 215 216 215 213 213 214 214 213 214 217 219 218 217 217 217 217 218 219 219 220 221 222 223 226 228 228 230 231 231 229 226 222 220 222 223 224 225 224 222 223 225 225 227 229 229 229 228 227 227 227 227 226 226 227 229 232 235 236 237 238 240 242 244 247 250 252 255 257 259 260 261 262 263 265 267 269 272
211 211 211 211 211 211 213 215 215 215 216 215 213 212 214 214 213 213 215 217 218 218 217 217 217 218 218 219 220 221 222 223 225 227 227 228 230 232 232 229 224 220 220 222 225 227 226 224 223 224 225 226 228 230 230 230 228 227 227 227 227 228 229 231 234 236 238 239 239 241 243 245 248 250 252 255 257 259 261 263 264 265 267 269 271 274
212 212 212 213 213 212 213 215 215 215 215 215 212 212 213 214 213 212 213 216 218 218 217 217 217 218 218 219 220 221 222 223 224 226 226 227 228 230 232 232 228 223 220 220 223 225 227 226 226 226 226 227 228 229 231 232 231 230 229 229 230 231 232 234 237 239 240 242 243 244 245 247 249 250 252 254 256 258 260 262 264 266 268 270 273 275
212 212 212 213 213 214 214 215 216 216 216 215 213 212 213 214 213 212 213 215 218 218 216 216 217 217 218 218 220 221 221 222 224 225 226 226 227 228 231 232 231 227 223 220 221 223 225 226 227 228 229 230 230 230 231 233 234 235 234 234 234 235 237 238 240 242 244 245 247 248 250 251 252 253 255 256 258 259 261 263 265 268 270 272 274 276
211 212 213 212 213 214 215 216 216 216 216 215 214 213 212 212 212 212 213 214 216 217 216 216 216 217 217 218 219 220 221 222 223 225 226 226 227 227 229 231 232 231 228 224 222 222 223 224 226 228 230 231 232 232 233 234 235 237 238 239 239 239 241 242 244 246 247 249 251 252 254 255 256 257 258 259 261 263 265 266 268 270 272 275 276 278
212 213 214 213 212 213 215 216 217 217 216 215 214 213 211 210 211 213 213 214 215 217 217 216 216 217 218 218 219 220 221 222 223 224 225 226 227 227 228 230 231 231 231 229 226 224 223 223 224 226 228 231 232 233 234 235 236 237 239 240 241 242 244 245 247 249 250 252 253 254 256 257 258 260 261 262 263 265 266 268 270 272 274 276 277 279
Height
10923 10927 10928 10927 10928 10931 10933 10935 10934 10937 10942 10944 10945 10946 10948 10950 10951 10951 10951 10953 10954 10953 10953 10955 10957 10959 10960 10961 10962 10962 10964 10965 10967 10969 10969 10968 10968 10968 10968 10966 10966 10966 10967 10969 10970 10972 10972 10973 10974 10975 10976 10976 10976 10976 10977 10979 10982 10985 10988 10990 10991 10993 10995 10997 10998 11000 11001 11002 11003 11004 11005 11006 11007 11007 11008 11008 11008 11008 11008 11009 11009 11009 11009 11009 11009 11009
10919 10921 10919 10919 10924 10927 10929 10931 10931 10933 10937 10939 10940 10942 10943 10945 10946 10947 10947 10948 10950 10948 10949 10952 10954 10956 10956 10957 10959 10959 10961 10962 10964 10966 10967 10967 10966 10966 10966 10965 10965 10966 10967 10968 10969 10971 10972 10973 10974 10975 10976 10977 10976 10976 10977 10979 10983 10986 10988 10990 10991 10993 10995 10997 10999 11000 11001 11003 11004 11005 11006 11007 11008 11009 11009 11009 11010 11010 11010 11010 11010 11010 11011 11011 11011 11011
10914 10911 10909 10915 10920 10923 10925 10927 10927 10928 10932 10934 10935 10937 10938 10940 10941 10942 10943 10944 10945 10945 10945 10948 10950 10950 10952 10953 10955 10956 10958 10960 10961 10963 10965 10965 10965 10964 10964 10964 10965 10966 10966 10967 10968 10970 10972 10972 10973 10975 10976 10977 10976 10976 10976 10979 10982 10985 10988 10990 10991 10993 10995 10997 10999 11001 11002 11004 11005 11006 11007 11008 11009 11009 11010 11010 11011 11011 11011 11011 11011 11012 11012 11012 11012 11012
10905 10901 10903 10912 10916 10919 10920 10921 10922 10923 10926 10929 10930 10932 10933 10934 10936 10938 10939 10938 10941 10942 10942 10945 10946 10946 10948 10950 10952 10954 10956 10957 10959 10960 10961 10963 10963 10962 10962 10963 10964 10965 10965 10966 10967 10969 10971 10972 10973 10974 10976 10976 10976 10975 10976 10978 10982 10985 10988 10990 10992 10993 10995 10998 11000 11001 11002 11004 11005 11006 11007 11008 11009 11010 11011 11011 11012 11012 11012 11012 11012 11013 11013 11013 11013 11013
10896 10895 10901 10908 10911 10913 10914 10915 10917 10918 10921 10922 10924 10926 10927 10928 10932 10933 10934 10934 10935 10938 10940 10942 10943 10942 10944 10947 10949 10951 10953 10954 10956 10957 10959 10961 10962 10961 10961 10962 10962 10963 10964 10965 10966 10967 10969 10971 10972 10973 10975 10976 10976 10975 10975 10978 10982 10986 10988 10990 10992 10993 10996 10998 10999 11001 11002 11004 11005 11006 11007 11008 11009 11010 11011 11012 11012 11012 11013 11013 11013 11014 11014 11014 11014 11014
10888 10891 10897 10901 10904 10906 10907 10909 10911 10912 10914 10917 10919 10920 10920 10923 10926 10928 10930 10930 10931 10934 10936 10939 10940 10938 10939 10943 10945 10948 10950 10951 10953 10955 10957 10958 10960 10960 10960 10961 10961 10962 10962 10963 10965 10966 10967 10969 10970 10972 10975 10976 10976 10975 10975 10977 10981 10985 10988 10990 10992 10993 10995 10997 10999 11001 11002 11004 11005 11006 11007 11008 11009 11010 11011 11012 11013 11013 11013 11014 11014 11014 11014 11014 11015 11015
10883 10887 10891 10894 10897 10899 10901 10904 10905 10907 10909 10912 10913 10913 10914 10919 10921 10923 10926 10926 10928 10930 10932 10935 10936 10933 10935 10939 10940 10943 10946 10947 10950 10953 10954 10955 10958 10958 10958 10959 10960 10961 10961 10962 10963 10964 10965 10967 10969 10971 10973 10976 10976 10975 10975 10976 10980 10984 10987 10990 10991 10993 10995 10997 10999 11000 11002 11003 11004 11006 11007 11008 11009 11010 11011 11012 11013 11013 11014 11014 11014 11015 11015 11015 11015 11015
10876 10877 10883 10886 10889 10893 10896 10898 10898 10900 10904 10906 10906 10906 10910 10914 10916 10918 10921 10922 10924 10925 10926 10932 10933 10930 10932 10934 10934 10938 10941 10943 10947 10950 10951 10952 10954 10956 10956 10957 10958 10959 10959 10960 10961 10961 10963 10965 10967 10969 10972 10975 10975 10974 10974 10975 10978 10982 10986 10989 10991 10993 10995 10996 10998 11000 11001 11003 11004 11005 11006 11008 11009 11010 11011 11012 11013 11014 11014 11014 11015 11015 11015 11015 11015 11015
10863 10867 10875 10878 10882 10887 10890 10890 10891 10894 10898 10899 10899 10902 10906 10909 10911 10913 10915 10917 10918 10919 10922 10927 10928 10928 10929 10928 10929 10932 10935 10939 10942 10944 10946 10948 10951 10953 10954 10954 10955 10957 10958 10958 10959 10959 10961 10963 10965 10967 10969 10972 10974 10974 10973 10974 10977 10981 10984 10987 10990 10992 10994 10996 10997 10999 11000 11002 11003 11004 11006 11007 11008 11009 11010 11011 11012 11013 11014 11014 11014 11014 11014 11015 11015 11015
10854 10862 10867 10871 10877 10882 10883 10883 10886 10891 10892 10892 10895 10898 10901 10904 10906 10907 10909 10911 10912 10915 10918 10919 10922 10925 10924 10922 10923 10927 10930 10933 10936 10938 10941 10944 10947 10950 10951 10951 10952 10954 10956 10957 10957 10958 10960 10961 10963 10965 10967 10970 10973 10973 10972 10972 10975 10979 10982 10985 10988 10991 10993 10995 10996 10998 10999 11001 11002 11004 11005 11006 11007 11009 11010 11011 11012 11013 11013 11014 11014 11014 11014 11014 11015 11015
10849 10854 10860 10867 10873 10875 10876 10878 10883 10885 10884 10886 10891 10893 10895 10898 10899 10901 10903 10904 10908 10913 10912 10911 10914 10917 10917 10917 10919 10922 10924 10927 10929 10933 10938 10940 10944 10947 10949 10949 10949 10951 10954 10955 10955 10955 10957 10959 10961 10962 10964 10966 10970 10972 10971 10971 10973 10976 10980 10983 10987 10990 10992 10994 10995 10997 10998 11000 11001 11003 11004 11005 11006 11008 11009 11010 11011 11012 11012 11013 11013 11014 11014 11014 11014 11015
10841 10848 10856 10863 10866 10866 10869 10874 10877 10877 10877 10881 10886 10886 10888 10892 10893 10896 10897 10899 10906 10908 10903 10901 10903 10908 10912 10912 10913 10917 10919 10921 10925 10929 10934 10937 10940 10943 10946 10948 10948 10948 10951 10952 10952 10953 10955 10957 10959 10960 10961 10963 10967 10970 10970 10970 10971 10974 10977 10981 10985 10988 10990 10992 10994 10996 10997 10999 11000 11002 11003 11004 11006 11007 11008 11009 11010 11011 11012 11012 11013 11013 11013 11014 11014 11014
10834 10842 10848 10852 10856 10857 10862 10868 10870 10869 10872 10876 10879 10879 10882 10886 10888 10891 10893 10896 10900 10897 10892 10891 10893 10903 10908 10906 10908 10913 10915 10917 10920 10925 10930 10934 10937 10940 10942 10945 10947 10947 10948 10949 10950 10951 10953 10955 10958 10959 10960 10962 10965 10968 10969 10969 10970 10973 10976 10980 10983 10986 10989 10991 10993 10995 10997 10998 11000 11001 11002 11004 11005 11006 11007 11009 11010 11010 11011 11012 11012 11013 11013 11013 11013 11014
10823 10828 10835 10842 10847 10850 10856 10863 10863 10863 10865 10869 10872 10874 10876 10880 10882 10886 10887 10889 10890 10888 10886 10885 10890 10902 10906 10904 10907 10911 10911 10912 10917 10922 10926 10930 10934 10937 10939 10942 10945 10946 10946 10947 10948 10950 10951 10953 10955 10956 10957 10960 10963 10966 10968 10968 10970 10972 10976 10979 10982 10985 10988 10990 10993 10995 10997 10998 10999 11000 11001 11003 11004 11005 11007 11008 11009 11010 11011 11011 11012 11012 11012 11013 11013 11013
10815 10821 10831 10838 10841 10844 10851 10856 10855 10855 10858 10863 10865 10866 10870 10874 10877 10880 10881 10882 10883 10882 10882 10884 10891 10898 10900 10901 10904 10907 10908 10910 10914 10918 10922 10926 10931 10934 10935 10938 10942 10945 10945 10944 10946 10947 10948 10949 10951 10952 10955 10958 10961 10964 10965 10966 10968 10971 10974 10978 10981 10985 10987 10989 10992 10994 10996 10997 10998 10999 11000 11002 11003 11004 11005 11006 11008 11008 11009 11010 11011 11011 11011 11012 11012 11012
10809 10818 10826 10828 10830 10835 10841 10845 10845 10848 10853 10855 10857 10862 10868 10870 10870 10874 10876 10877 10877 10877 10880 10884 10889 10891 10893 10896 10898 10903 10907 10908 10911 10915 10918 10924 10928 10930 10932 10934 10938 10941 10943 10942 10942 10944 10945 10946 10945 10946 10951 10955 10958 10961 10963 10965 10967 10969 10972 10975 10979 10983 10986 10988 10990 10992 10994 10995 10997 10998 10999 11000 11001 11002 11003 11004 11006 11007 11007 11008 11009 11010 11010 11010 11011 11011
10801 10810 10813 10815 10822 10828 10833 10836 10838 10843 10847 10847 10852 10860 10861 10859 10864 10870 10871 10871 10873 10876 10878 10881 10882 10882 10887 10891 10894 10899 10903 10904 10907 10910 10914 10920 10923 10926 10928 10930 10933 10936 10939 10940 10940 10941 10944 10944 10943 10944 10949 10953 10956 10958 10961 10963 10966 10968 10970 10974 10977 10980 10983 10985 10988 10990 10992 10993 10994 10995 10996 10998 10999 11000 11001 11002 11003 11004 11006 11007 11007 11008 11008 11009 11009 11009
10790 10797 10800 10806 10815 10821 10825 10827 10830 10836 10840 10842 10850 10854 10850 10853 10862 10867 10866 10868 10871 10873 10874 10874 10875 10878 10883 10887 10888 10892 10897 10900 10902 10905 10910 10916 10918 10922 10924 10925 10927 10931 10934 10936 10937 10940 10942 10943 10944 10945 10948 10951 10953 10955 10959 10962 10965 10967 10969 10971 10974 10977 10980 10982 10985 10987 10989 10990 10992 10993 10994 10995 10997 10998 10999 11000 11001 11002 11003 11005 11005 11006 11006 11007 11007 11008
10779 10784 10788 10797 10805 10809 10813 10816 10823 10832 10837 10841 10845 10843 10845 10854 10861 10862 10862 10865 10866 10866 10868 10869 10871 10875 10879 10881 10882 10886 10891 10895 10897 10899 10906 10910 10912 10916 10919 10920 10922 10926 10930 10932 10934 10937 10939 10940 10942 10943 10945 10948 10950 10954 10957 10961 10963 10965 10967 10969 10971 10974 10976 10979 10982 10984 10986 10988 10990 10991 10992 10993 10994 10995 10996 10997 10998 10999 11001 11002 11002 11003 11004 11005 11005 11006
10771 10774 10780 10790 10795 10798 10803 10810 10822 10832 10834 10836 10838 10839 10845 10853 10855 10856 10857 10858 10859 10861 10863 10865 10867 10871 10873 10875 10878 10883 10888 10891 10892 10895 10900 10903 10906 10909 10913 10915 10918 10922 10926 10928 10930 10932 10933 10935 10937 10939 10942 10945 10947 10951 10954 10958 10961 10962 10965 10966 10968 10971 10973 10976 10978 10980 10983 10985 10986 10988 10990 10991 10992 10993 10994 10995 10995 10996 10998 10998 10999 11001 11001 11002 11003 11003
10761 10767 10775 10782 10784 10789 10801 10812 10822 10827 10827 10831 10833 10835 10842 10847 10849 10851 10852 10852 10855 10858 10859 10861 10864 10866 10868 10872 10876 10881 10884 10886 10889 10891 10894 10897 10900 10903 10907 10910 10913 10918 10922 10924 10926 10928 10929 10932 10934 10937 10940 10942 10944 10948 10950 10954 10957 10959 10962 10963 10965 10968 10970 10972 10975 10977 10980 10981 10983 10985 10987 10989 10990 10991 10991 10991 10992 10994 10995 10996 10997 10998 10998 10999 11000 11001
10756 10766 10770 10769 10774 10788 10802 10810 10813 10815 10818 10822 10824 10828 10834 10838 10842 10845 10846 10848 10851 10853 10854 10857 10859 10861 10866 10870 10872 10875 10879 10882 10884 10887 10889 10892 10894 10897 10901 10906 10909 10914 10917 10920 10922 10924 10927 10929 10932 10935 10937 10937 10940 10943 10946 10950 10954 10956 10959 10961 10963 10966 10968 10970 10973 10975 10977 10979 10981 10983 10985 10986 10987 10987 10988 10989 10991 10992 10993 10994 10994 10995 10995 10996 10998 10998
10747 10756 10757 10756 10768 10786 10795 10796 10799 10804 10808 10811 10814 10820 10825 10830 10835 10839 10840 10841 10843 10845 10848 10850 10852 10857 10863 10865 10867 10872 10875 10877 10879 10881 10883 10886 10889 10893 10898 10901 10906 10910 10913 10916 10919 10922 10924 10927 10929 10932 10933 10932 10935 10939 10943 10946 10950 10953 10956 10959 10961 10963 10966 10969 10971 10973 10975 10977 10979 10982 10983 10984 10985 10986 10987 10988 10989 10991 10991 10992 10992 10992 10993 10994 10995 10996
10727 10736 10744 10751 10764 10777 10782 10783 10788 10794 10798 10804 10810 10816 10822 10826 10830 10832 10832 10833 10836 10839 10842 10845 10847 10854 10860 10861 10864 10870 10871 10872 10874 10876 10878 10881 10884 10889 10892 10896 10902 10906 10908 10912 10917 10919 10921 10924 10926 10928 10929 10930 10931 10935 10939 10943 10946 10950 10954 10956 10958 10961 10964 10966 10968 10971 10973 10975 10978 10980 10981 10982 10983 10984 10985 10986 10988 10989 10990 10990 10990 10991 10992 10992 10993 10994
10714 10728 10742 10748 10753 10763 10772 10777 10782 10788 10797 10804 10808 10812 10818 10821 10823 10826 10826 10829 10833 10835 10838 10840 10842 10852 10858 10857 10862 10867 10866 10868 10870 10871 10874 10877 10879 10884 10888 10893 10898 10901 10904 10909 10913 10916 10917 10919 10921 10923 10926 10927 10929 10931 10934 10938 10942 10946 10949 10952 10955 10958 10961 10963 10965 10968 10970 10973 10975 10976 10977 10979 10980 10981 10982 10984 10986 10987 10987 10987 10988 10988 10990 10990 10991 10992
10711 10728 10739 10741 10744 10755 10767 10774 10779 10787 10795 10800 10802 10807 10811 10814 10818 10821 10823 10826 10830 10832 10835 10835 10839 10850 10854 10853 10860 10864 10862 10864 10866 10866 10870 10873 10876 10882 10887 10891 10894 10897 10900 10904 10907 10910 10911 10913 10916 10919 10922 10923 10925 10928 10930 10933 10937 10941 10944 10948 10951 10955 10958 10960 10962 10965 10967 10970 10972 10973 10974 10975 10976 10978 10980 10981 10983 10984 10984 10984 10985 10986 10987 10988 10988 10989
10706 10721 10730 10734 10739 10747 10758 10765 10768 10774 10783 10790 10795 10800 10804 10808 10812 10815 10818 10824 10826 10828 10830 10829 10835 10847 10849 10849 10858 10860 10858 10859 10860 10862 10867 10870 10874 10880 10883 10885 10887 10890 10893 10897 10902 10905 10905 10908 10913 10915 10917 10919 10921 10923 10925 10929 10933 10937 10941 10945 10948 10952 10954 10956 10959 10962 10965 10967 10968 10969 10970 10972 10973 10975 10977 10978 10980 10980 10981 10981 10982 10983 10984 10985 10986 10986
10697 10709 10719 10728 10731 10735 10746 10754 10758 10765 10776 10784 10789 10793 10797 10802 10805 10810 10816 10820 10820 10822 10823 10823 10831 10841 10843 10846 10854 10855 10852 10854 10856 10859 10864 10867 10871 10875 10875 10877 10880 10885 10889 10894 10900 10903 10902 10906 10911 10912 10914 10917 10919 10921 10923 10926 10929 10933 10937 10941 10944 10947 10950 10953 10956 10958 10961 10963 10964 10965 10966 10968 10970 10972 10974 10975 10976 10977 10977 10978 10979 10980 10981 10982 10982 10983
10684 10698 10710 10718 10720 10723 10734 10745 10752 10760 10769 10776 10782 10786 10789 10794 10799 10805 10810 10812 10815 10817 10816 10817 10825 10835 10838 10841 10845 10846 10846 10850 10853 10856 10861 10864 10867 10869 10869 10872 10877 10882 10887 10892 10898 10900 10901 10905 10909 10911 10913 10915 10917 10919 10921 10924 10926 10929 10933 10936 10940 10943 10946 10949 10951 10953 10956 10958 10959 10960 10962 10965 10967 10968 10970 10971 10972 10973 10974 10975 10976 10976 10977 10978 10979 10980
10680 10696 10704 10706 10706 10711 10723 10737 10747 10754 10760 10767 10773 10778 10782 10788 10794 10799 10801 10804 10809 10810 10809 10813 10820 10827 10831 10832 10835 10840 10844 10847 10851 10855 10857 10860 10862 10863 10864 10868 10872 10876 10882 10888 10894 10896 10899 10903 10906 10909 10911 10912 10914 10916 10918 10921 10923 10926 10929 10932 10936 10939 10942 10945 10947 10949 10952 10953 10955 10957 10959 10961 10962 10964 10966 10967 10969 10970 10970 10972 10973 10973 10974 10974 10975 10976
10679 10691 10692 10693 10698 10705 10717 10730 10738 10744 10751 10759 10768 10775 10780 10784 10788 10791 10793 10798 10802 10804 10805 10808 10813 10820 10823 10824 10830 10839 10843 10845 10849 10852 10852 10853 10855 10857 10860 10863 10867 10873 10879 10885 10889 10892 10896 10900 10903 10904 10905 10907 10910 10912 10914 10917 10920 10923 10926 10928 10931 10935 10938 10940 10943 10945 10947 10949 10951 10953 10955 10956 10957 10960 10962 10964 10965 10966 10967 10968 10969 10969 10970 10971 10972 10973
10672 10676 10678 10682 10691 10702 10713 10722 10729 10737 10745 10753 10762 10769 10774 10778 10782 10785 10789 10793 10796 10798 10800 10803 10808 10814 10816 10820 10828 10836 10839 10841 10844 10844 10844 10847 10851 10854 10857 10861 10865 10871 10875 10877 10881 10885 10889 10892 10894 10897 10899 10902 10905 10907 10910 10912 10915 10918 10921 10924 10928 10930 10933 10935 10938 10940 10943 10945 10947 10949 10951 10952 10954 10956 10958 10960 10961 10962 10963 10965 10965 10965 10966 10967 10969 10970
10657 10661 10667 10674 10686 10698 10708 10715 10723 10730 10738 10746 10754 10762 10768 10773 10775 10777 10781 10786 10788 10792 10796 10799 10803 10805 10808 10816 10825 10830 10833 10834 10835 10837 10841 10845 10850 10853 10855 10858 10862 10866 10868 10871 10875 10878 10881 10885 10890 10894 10896 10898 10900 10903 10906 10909 10911 10914 10917 10920 10923 10925 10928 10930 10933 10936 10938 10940 10943 10945 10947 10949 10950 10952 10954 10956 10957 10959 10959 10961 10961 10962 10963 10964 10965 10965
10642 10652 10661 10669 10681 10692 10698 10703 10709 10717 10728 10737 10745 10752 10756 10761 10765 10768 10774 10779 10783 10786 10788 10791 10794 10797 10803 10815 10820 10821 10825 10827 10829 10836 10841 10844 10847 10849 10851 10853 10857 10862 10864 10866 10869 10874 10879 10884 10888 10889 10891 10894 10896 10900 10903 10906 10908 10911 10913 10916 10918 10920 10923 10926 10928 10931 10934 10936 10939 10940 10943 10945 10947 10948 10950 10952 10954 10955 10955 10956 10958 10959 10960 10960 10960 10960
10634 10644 10652 10663 10674 10682 10687 10690 10695 10709 10724 10731 10736 10742 10746 10754 10762 10764 10765 10768 10770 10772 10775 10782 10789 10793 10799 10808 10811 10812 10817 10823 10829 10835 10839 10840 10842 10843 10846 10849 10853 10857 10859 10861 10866 10872 10877 10880 10881 10883 10887 10890 10893 10897 10900 10902 10904 10907 10910 10912 10914 10917 10920 10923 10925 10927 10930 10933 10935 10936 10938 10941 10943 10945 10946 10947 10949 10950 10951 10951 10953 10955 10956 10956 10956 10956
10625 10633 10643 10655 10665 10671 10673 10676 10687 10707 10718 10721 10729 10736 10740 10747 10752 10750 10752 10757 10760 10764 10772 10781 10787 10790 10797 10804 10803 10805 10812 10820 10827 10832 10833 10834 10835 10837 10842 10845 10849 10854 10858 10861 10866 10868 10871 10874 10876 10880 10884 10887 10890 10893 10896 10899 10901 10904 10907 10909 10912 10915 10917 10920 10922 10924 10926 10928 10930 10932 10934 10937 10939 10941 10942 10943 10944 10945 10946 10947 10948 10950 10951 10951 10951 10952
10615 10623 10635 10646 10653 10659 10663 10671 10686 10700 10703 10709 10723 10728 10729 10736 10738 10737 10745 10752 10754 10761 10771 10778 10781 10785 10790 10790 10789 10796 10807 10816 10823 10825 10823 10825 10830 10836 10841 10846 10849 10854 10858 10859 10859 10861 10865 10869 10872 10875 10879 10882 10885 10888 10891 10895 10898 10900 10903 10905 10908 10910 10913 10916 10918 10920 10922 10924 10926 10929 10931 10933 10935 10936 10937 10938 10939 10940 10942 10943 10944 10945 10946 10947 10947 10947
10606 10614 10623 10632 10638 10646 10654 10664 10675 10684 10691 10706 10718 10715 10716 10725 10728 10731 10741 10745 10746 10754 10763 10766 10769 10775 10779 10781 10786 10797 10808 10813 10816 10815 10816 10823 10831 10837 10841 10844 10846 10850 10851 10851 10852 10856 10861 10863 10866 10870 10874 10878 10881 10884 10886 10890 10893 10896 10899 10900 10903 10906 10909 10911 10913 10916 10918 10920 10922 10925 10927 10928 10930 10931 10932 10933 10934 10936 10937 10938 10939 10940 10941 10942 10942 10942
10596 10603 10612 10622 10629 10637 10647 10655 10663 10674 10686 10697 10700 10698 10704 10716 10720 10726 10735 10735 10735 10743 10750 10753 10760 10769 10776 10783 10790 10799 10805 10805 10803 10805 10813 10825 10832 10835 10837 10840 10842 10845 10845 10846 10850 10854 10856 10858 10862 10867 10870 10873 10876 10879 10882 10886 10889 10892 10894 10896 10899 10901 10903 10906 10909 10911 10914 10916 10918 10920 10922 10923 10925 10926 10927 10929 10930 10931 10932 10933 10934 10935 10936 10937 10937 10937
10584 10591 10602 10615 10622 10629 10640 10648 10654 10665 10673 10678 10681 10684 10694 10705 10710 10715 10721 10721 10726 10740 10748 10752 10761 10769 10774 10782 10789 10793 10794 10792 10792 10802 10817 10826 10830 10832 10834 10836 10839 10841 10842 10845 10848 10850 10852 10856 10859 10862 10865 10868 10871 10874 10878 10882 10885 10887 10890 10892 10894 10896 10898 10901 10904 10907 10909 10910 10912 10914 10916 10917 10919 10920 10922 10923 10924 10926 10927 10928 10929 10929 10930 10931 10931 10931
10573 10582 10594 10606 10611 10618 10628 10635 10641 10649 10656 10663 10668 10672 10683 10695 10699 10701 10707 10714 10725 10739 10745 10748 10757 10765 10772 10781 10785 10785 10785 10786 10792 10805 10816 10820 10822 10826 10827 10829 10834 10836 10838 10842 10844 10846 10849 10853 10855 10857 10860 10862 10865 10870 10875 10877 10880 10882 10885 10887 10890 10891 10894 10897 10899 10901 10902 10904 10905 10908 10909 10911 10913 10914 10916 10917 10918 10920 10920 10921 10923 10923 10924 10925 10925 10925
10564 10574 10585 10595 10601 10608 10616 10622 10626 10634 10643 10650 10657 10666 10679 10690 10691 10694 10705 10714 10723 10733 10739 10743 10752 10761 10769 10775 10776 10778 10783 10786 10791 10800 10807 10810 10815 10819 10820 10825 10830 10832 10835 10839 10841 10843 10847 10849 10850 10853 10856 10858 10861 10866 10868 10870 10874 10877 10879 10882 10884 10887 10889 10892 10893 10895 10897 10898 10900 10901 10903 10905 10907 10908 10910 10911 10912 10913 10914 10915 10916 10917 10918 10918 10919 10919
10556 10564 10574 10584 10592 10599 10606 10610 10614 10621 10631 10640 10649 10661 10674 10682 10686 10693 10704 10711 10719 10729 10736 10740 10749 10758 10764 10768 10772 10777 10781 10782 10786 10794 10800 10805 10810 10814 10817 10822 10826 10828 10831 10835 10837 10840 10842 10844 10847 10850 10852 10854 10857 10860 10862 10865 10868 10870 10873 10876 10879 10881 10884 10885 10887 10889 10891 10893 10895 10896 10897 10899 10901 10902 10904 10905 10906 10907 10908 10909 10910 10910 10911 10912 10913 10914
10547 10556 10565 10574 10581 10586 10593 10598 10603 10613 10624 10633 10641 10652 10664 10674 10682 10689 10697 10704 10714 10724 10729 10735 10745 10754 10759 10763 10769 10774 10777 10779 10783 10789 10794 10799 10804 10809 10814 10818 10820 10823 10826 10830 10833 10836 10838 10841 10844 10846 10848 10850 10852 10854 10857 10859 10862 10865 10868 10871 10873 10875 10877 10879 10881 10884 10885 10887 10889 10890 10892 10893 10895 10896 10898 10899 10901 10902 10903 10904 10905 10905 10906 10907 10908 10908
10535 10544 10552 10561 10567 10573 10580 10586 10595 10607 10616 10622 10633 10647 10659 10669 10678 10685 10692 10700 10710 10718 10724 10731 10741 10746 10750 10757 10763 10767 10771 10775 10778 10781 10786 10793 10798 10803 10808 10812 10815 10819 10822 10826 10829 10832 10834 10838 10840 10841 10843 10845 10847 10849 10852 10854 10857 10860 10862 10864 10866 10869 10871 10874 10876 10877 10879 10881 10883 10884 10886 10888 10889 10890 10892 10894 10896 10897 10898 10899 10900 10901 10901 10902 10902 10903
10525 10533 10541 10548 10557 10566 10574 10581 10591 10601 10607 10615 10632 10646 10654 10662 10671 10680 10688 10696 10704 10712 10719 10726 10733 10738 10744 10751 10756 10760 10765 10770 10772 10775 10780 10786 10791 10796 10801 10805 10810 10814 10818 10821 10824 10826 10829 10833 10835 10837 10839 10840 10842 10845 10847 10849 10853 10855 10856 10859 10861 10864 10867 10869 10870 10872 10873 10875 10877 10879 10881 10882 10884 10885 10887 10889 10890 10891 10892 10893 10895 10895 10896 10896 10897 10897
10518 10527 10534 10542 10550 10559 10566 10572 10582 10592 10598 10609 10627 10638 10644 10652 10662 10673 10683 10690 10696 10704 10713 10719 10726 10732 10739 10745 10750 10755 10761 10765 10766 10769 10774 10779 10785 10789 10793 10798 10804 10808 10812 10816 10819 10821 10824 10828 10830 10832 10834 10836 10838 10840 10842 10845 10847 10849 10851 10854 10857 10859 10862 10864 10865 10867 10868 10870 10872 10874 10876 10877 10879 10881 10882 10884 10885 10886 10886 10887 10888 10889 10890 10890 10891 10892
10512 10521 10531 10539 10547 10555 10559 10565 10575 10585 10591 10602 10620 10632 10639 10647 10657 10669 10679 10683 10688 10696 10706 10714 10720 10726 10732 10739 10743 10748 10753 10757 10760 10763 10768 10773 10778 10781 10785 10791 10796 10802 10806 10811 10813 10816 10819 10822 10825 10827 10829 10831 10833 10835 10838 10840 10842 10844 10847 10850 10852 10855 10857 10858 10860 10861 10863 10865 10867 10869 10871 10872 10874 10875 10877 10878 10879 10880 10881 10881 10882 10883 10884 10885 10886 10886
10507 10515 10524 10533 10542 10551 10557 10563 10573 10582 10589 10601 10618 10629 10634 10642 10655 10666 10672 10676 10680 10689 10699 10707 10712 10719 10725 10731 10736 10741 10746 10750 10754 10758 10762 10766 10771 10775 10779 10783 10789 10795 10800 10804 10807 10810 10813 10816 10819 10821 10823 10825 10828 10831 10834 10836 10838 10840 10843 10845 10847 10849 10851 10853 10854 10856 10858 10860 10862 10863 10865 10866 10868 10869 10871 10872 10873 10874 10875 10875 10876 10877 10878 10879 10880 10879
10501 10508 10515 10524 10534 10544 10552 10558 10565 10574 10584 10596 10609 10617 10625 10638 10650 10657 10662 10667 10674 10682 10691 10698 10705 10711 10717 10723 10729 10734 10740 10744 10748 10752 10756 10760 10764 10768 10772 10777 10782 10787 10792 10796 10799 10803 10806 10809 10813 10815 10817 10819 10823 10826 10829 10831 10834 10836 10838 10839 10841 10843 10845 10847 10848 10850 10853 10854 10856 10858 10858 10859 10862 10863 10864 10865 10867 10867 10868 10869 10869 10870 10872 10873 10873 10872
10497 10502 10507 10516 10526 10537 10546 10552 10559 10569 10580 10591 10601 10611 10621 10633 10642 10647 10654 10663 10670 10677 10684 10692 10699 10705 10711 10717 10723 10729 10734 10738 10743 10746 10750 10754 10758 10763 10767 10771 10774 10779 10784 10788 10792 10795 10799 10804 10807 10810 10812 10814 10818 10821 10823 10826 10828 10831 10831 10833 10835 10837 10839 10840 10842 10845 10847 10848 10850 10851 10851 10853 10856 10856 10856 10858 10860 10860 10860 10861 10862 10864 10865 10865 10865 10865